[[{"header":{"parameterUnit":"m.s-1","parameterCategory":1,"la1":30.2991,"la2":30.254,"lo1":-89.0895,"lo2":-89.0444,"dy":0.0017,"dx":0.0017,"nx":28,"ny":28,"refTime":"2023-11-21T09:00:00:Z","depth":0,"parameterNumber":2,"parameterNumberName":"U-component_of_WINDS"},"data":[0,0,0,0,0,0,0,0,0,0,0,0,0,0,0,0,0,0,0,0,0,0,0,0,0,0,0,0,0,0,0,0,0,0,0,0,0,0,0,0,0,0,0,0,0,0,0,0,0,0,0,0,0,0,0,0,0,0,-0.3075,-0.3076,0,-0.3176,-0.3177,-0.3178,-0.3132,-0.313,-0.3127,-0.3125,-0.3234,-0.324,-0.3245,0,0,0,0,0,0,0,0,0,0,0,0,0,-0.2848,-0.2852,-0.3075,-0.3076,-0.3077,-0.3176,-0.3177,-0.3178,-0.3133,-0.3129,-0.3126,-0.3123,-0.3233,-0.3239,-0.3245,0,0,0,0,0,0,0,0,0,0,0,0,0,-0.2948,-0.2854,-0.3075,-0.3066,-0.3066,-0.3175,-0.3177,-0.3179,-0.3133,-0.3129,-0.3126,-0.3122,-0.3231,-0.3238,-0.3246,-0.3371,0,0,-0.327,-0.3274,0,0,0,0,0,0,0,0,-0.2942,-0.2956,-0.3066,-0.3067,-0.3067,-0.3137,-0.3137,-0.3244,-0.3134,-0.3108,-0.3125,-0.312,-0.3206,-0.3215,-0.3243,-0.3377,-0.3381,-0.3271,-0.3276,-0.3279,-0.3282,0,0,0,0,0,0,0,-0.2935,-0.2952,-0.3115,-0.3068,-0.3069,-0.3059,-0.3069,-0.3157,-0.3177,-0.311,-0.3107,-0.3119,-0.3205,-0.3235,-0.3245,-0.3383,-0.3271,-0.3278,-0.3283,-0.3286,-0.3626,-0.363,0,0,0,0,0,0,-0.2928,-0.2946,-0.3112,-0.3118,-0.2994,-0.3066,-0.3077,-0.3119,-0.3176,-0.3181,-0.3122,-0.3117,-0.3224,-0.3236,-0.3249,-0.3401,-0.3279,-0.3287,-0.3291,-0.3622,-0.3627,-0.3632,0,0,0,0,0,0,-0.2923,-0.2943,-0.3108,-0.3031,-0.3051,-0.3074,-0.3121,-0.3123,-0.3153,-0.3185,-0.3189,-0.3149,-0.3221,-0.3238,-0.3341,-0.3405,-0.329,-0.3298,-0.3617,-0.3624,-0.363,-0.3706,0,0,0,0,0,0,-0.2917,-0.2941,-0.2988,-0.3032,-0.3056,-0.3197,-0.3125,-0.3128,-0.3166,-0.316,-0.3211,-0.3216,-0.3219,-0.333,-0.3349,-0.3413,-0.3304,-0.3612,-0.362,-0.3628,-0.3698,-0.3715,-0.3728,0,0,0,0,0,-0.2909,-0.3007,-0.2991,-0.3011,-0.3114,-0.3201,-0.3214,-0.3214,-0.3171,-0.3219,-0.324,-0.3215,-0.3393,-0.3341,-0.3362,-0.343,-0.3608,-0.3618,-0.3627,-0.3692,-0.3711,-0.3728,0,0,0,0,0,0,-0.2972,-0.3012,-0.2995,-0.311,-0.3152,-0.3193,-0.3254,-0.3235,-0.3291,-0.3283,-0.3282,-0.3294,-0.3402,-0.3426,-0.3366,-0.3555,-0.3494,-0.3509,-0.3536,-0.3555,-0.357,-0.3564,-0.331,0,0,0,0,0,-0.2998,-0.3063,-0.3096,-0.3194,-0.3216,-0.3231,-0.3269,-0.3265,-0.3309,-0.3327,-0.3356,-0.3402,-0.3468,-0.3512,-0.3575,-0.37,-0.3712,-0.3757,-0.3772,-0.3784,-0.3798,-0.3868,-0.389,-0.3664,-0.3663,-0.3663,0,0,-0.3056,-0.3086,-0.3127,-0.3208,-0.324,-0.331,-0.3247,-0.3323,-0.3375,-0.334,-0.344,-0.3462,-0.3513,-0.3628,-0.368,-0.3651,-0.3863,-0.3796,-0.3806,-0.3814,-0.388,-0.3902,-0.3921,-0.367,-0.3669,-0.3668,0,0,-0.3196,-0.3224,-0.331,-0.3342,-0.3391,-0.34,-0.3421,-0.3464,-0.3477,-0.3576,-0.3551,-0.3614,-0.3728,-0.3766,-0.38,-0.3954,-0.3934,-0.3974,-0.4054,-0.4123,-0.4141,-0.4157,-0.4214,-0.4235,-0.3987,-0.3987,-0.3987,0,-0.3262,-0.3364,-0.3357,-0.3435,-0.3472,-0.344,-0.3529,-0.3561,-0.3629,-0.3656,-0.3621,-0.3764,-0.3796,-0.3921,-0.3958,-0.3986,-0.4012,-0.397,-0.4138,-0.4154,-0.4169,-0.4224,-0.4245,-0.3992,-0.3991,-0.3991,-0.399,0,-0.3444,-0.3515,-0.3578,-0.3643,-0.3686,-0.377,-0.3777,-0.3823,-0.3814,-0.3827,-0.393,-0.3966,-0.4037,-0.4065,-0.4058,-0.419,-0.4171,-0.4137,-0.4077,-0.4195,-0.4247,-0.4268,-0.3999,-0.3997,-0.3995,-0.3994,0,0,-0.363,-0.3687,-0.3712,-0.3741,-0.3791,-0.3847,-0.3929,-0.3996,-0.4036,-0.4083,-0.4154,-0.425,-0.4219,-0.4258,-0.4255,-0.4314,-0.4437,-0.4273,-0.4275,-0.4306,-0.4587,-0.4615,-0.464,-0.4422,-0.4425,-0.4429,-0.4584,0,-0.3777,-0.3919,-0.3914,-0.4048,-0.4115,-0.4084,-0.4156,-0.4196,-0.421,-0.427,-0.4286,-0.4356,-0.4308,-0.4332,-0.4388,-0.441,-0.4494,-0.4398,-0.4491,-0.4495,-0.4483,-0.4666,-0.4696,-0.4842,-0.4604,-0.4608,-0.461,0,-0.3968,-0.402,-0.4159,-0.42,-0.4228,-0.4292,-0.4354,-0.441,-0.4455,-0.4462,-0.4504,-0.4491,-0.4577,-0.451,-0.463,-0.4564,-0.4602,-0.4618,-0.4623,-0.4636,-0.4563,-0.4688,-0.4888,-0.4911,-0.4641,-0.4639,-0.4637,0,-0.4095,-0.4199,-0.4296,-0.4321,-0.437,-0.4417,-0.444,-0.448,-0.4521,-0.4575,-0.4602,-0.4665,-0.4701,-0.4751,-0.4756,-0.4707,-0.4878,-0.4811,-0.4888,-0.4888,-0.4929,-0.4928,-0.5142,-0.4946,-0.4946,-0.4946,-0.4945,0,-0.4261,-0.4349,-0.4354,-0.4414,-0.4512,-0.4506,-0.4603,-0.4622,-0.4658,-0.4723,-0.47,-0.4762,-0.4763,-0.4827,-0.4831,-0.4931,-0.4946,-0.4956,-0.4957,-0.4961,-0.496,-0.4988,-0.498,-0.4951,-0.495,-0.4949,-0.4948,0,-0.4421,-0.4427,-0.4532,-0.4569,-0.458,-0.4651,-0.4684,-0.4742,-0.4753,-0.4836,-0.4855,-0.4873,-0.4947,-0.4955,-0.5042,-0.5045,-0.5166,-0.5154,-0.5151,-0.5151,-0.5228,-0.5223,-0.5473,-0.5506,-0.5285,-0.5287,-0.5288,0,-0.453,-0.4596,-0.4639,-0.468,-0.4705,-0.4772,-0.4812,-0.4809,-0.4853,-0.4908,-0.4961,-0.5031,-0.5089,-0.5208,-0.5231,-0.5297,-0.5289,-0.5372,-0.53,-0.5302,-0.5295,-0.5293,-0.5301,-0.5388,-0.539,-0.5392,-0.5394,0,-0.4722,-0.4722,-0.478,-0.484,-0.4889,-0.4937,-0.4981,-0.5017,-0.5019,-0.5069,-0.5143,-0.5187,-0.5275,-0.5347,-0.5412,-0.5438,-0.5418,-0.5415,-0.5438,-0.5445,-0.5442,-0.5448,-0.5194,-0.5411,-0.541,-0.5408,-0.5407,-0.5407,-0.4863,-0.4921,-0.496,-0.5027,-0.5059,-0.5101,-0.5159,-0.5175,-0.5236,-0.5306,-0.53,-0.5383,-0.5427,-0.5512,-0.5542,-0.5608,-0.5581,-0.5612,-0.5621,-0.563,-0.5639,-0.5427,-0.5619,-0.5619,-0.5618,-0.5618,-0.5618,0,-0.5058,-0.5081,-0.5141,-0.5204,-0.5257,-0.5228,-0.5276,-0.5323,-0.5396,-0.5437,-0.5493,-0.5579,-0.5648,-0.5675,-0.5743,-0.5791,-0.5784,-0.581,-0.5808,-0.5815,-0.5658,-0.5633,-0.5814,-0.5814,-0.5814,-0.5814,-0.5814,-0.5814,-0.5165,-0.5263,-0.5267,-0.5381,-0.5404,-0.5484,-0.5514,-0.5553,-0.5586,-0.5683,-0.5739,-0.5755,-0.5791,-0.5861,-0.5925,-0.5931,-0.5959,-0.599,-0.5992,-0.5846,-0.5826,-0.5807,-0.5785,-0.5995,-0.5995,-0.6145,-0.6146,-0.6147]},{"header":{"parameterUnit":"m.s-1","parameterCategory":1,"la1":30.2991,"la2":30.254,"lo1":-89.0895,"lo2":-89.0444,"dy":0.0017,"dx":0.0017,"nx":28,"ny":28,"refTime":"2023-11-21T09:00:00:Z","depth":0,"parameterNumber":3,"parameterNumberName":"V-component_of_WINDS"},"data":[0,0,0,0,0,0,0,0,0,0,0,0,0,0,0,0,0,0,0,0,0,0,0,0,0,0,0,0,0,0,0,0,0,0,0,0,0,0,0,0,0,0,0,0,0,0,0,0,0,0,0,0,0,0,0,0,0,0,-4.5462,-4.5464,0,-4.5594,-4.5596,-4.5597,-4.5533,-4.5529,-4.5526,-4.5523,-4.5655,-4.5661,-4.5668,0,0,0,0,0,0,0,0,0,0,0,0,0,-4.5151,-4.5157,-4.5462,-4.5464,-4.5466,-4.5594,-4.5596,-4.5598,-4.5533,-4.5529,-4.5525,-4.5521,-4.5653,-4.566,-4.5668,0,0,0,0,0,0,0,0,0,0,0,0,0,-4.5285,-4.5159,-4.5462,-4.5449,-4.5449,-4.5594,-4.5596,-4.5598,-4.5534,-4.5529,-4.5524,-4.5519,-4.565,-4.566,-4.567,-4.5833,0,0,-4.57,-4.5704,0,0,0,0,0,0,0,0,-4.5277,-4.5296,-4.5449,-4.545,-4.5451,-4.5542,-4.5534,-4.5677,-4.5536,-4.5502,-4.5523,-4.5517,-4.5621,-4.5633,-4.5669,-4.5839,-4.5845,-4.5701,-4.5707,-4.5711,-4.5714,0,0,0,0,0,0,0,-4.5268,-4.529,-4.5514,-4.5452,-4.5453,-4.5435,-4.5449,-4.5561,-4.5588,-4.5504,-4.55,-4.5517,-4.562,-4.566,-4.5672,-4.5847,-4.5701,-4.571,-4.5716,-4.572,-4.6157,-4.6162,0,0,0,0,0,0,-4.526,-4.5283,-4.551,-4.5518,-4.535,-4.5445,-4.546,-4.5518,-4.5587,-4.5593,-4.5521,-4.5513,-4.5645,-4.566,-4.5676,-4.5871,-4.5711,-4.5721,-4.5726,-4.6151,-4.6158,-4.6164,0,0,0,0,0,0,-4.5253,-4.5281,-4.5505,-4.54,-4.5427,-4.5456,-4.5521,-4.5523,-4.5562,-4.56,-4.5604,-4.5556,-4.5641,-4.5662,-4.5795,-4.5875,-4.5725,-4.5734,-4.6144,-4.6153,-4.6161,-4.6264,0,0,0,0,0,0,-4.5245,-4.5279,-4.5342,-4.5402,-4.5433,-4.5623,-4.5526,-4.5529,-4.558,-4.5571,-4.5634,-4.5639,-4.5639,-4.578,-4.5805,-4.5886,-4.5742,-4.6137,-4.6148,-4.6158,-4.6254,-4.6275,-4.6293,0,0,0,0,0,-4.5234,-4.5366,-4.5346,-4.5374,-4.5513,-4.5628,-4.5645,-4.5644,-4.5587,-4.565,-4.5674,-4.5637,-4.5862,-4.5794,-4.5821,-4.5907,-4.6132,-4.6145,-4.6157,-4.6245,-4.6271,-4.6293,0,0,0,0,0,0,-4.5314,-4.5373,-4.5352,-4.5507,-4.5563,-4.5617,-4.5697,-4.5671,-4.5744,-4.5732,-4.5726,-4.5741,-4.5878,-4.5906,-4.5829,-4.6068,-4.5988,-4.6007,-4.6045,-4.607,-4.609,-4.608,-4.575,0,0,0,0,0,-4.5351,-4.544,-4.5486,-4.5618,-4.5647,-4.5668,-4.5717,-4.5711,-4.5768,-4.5791,-4.5825,-4.588,-4.5963,-4.6018,-4.6097,-4.6257,-4.6269,-4.6329,-4.6349,-4.6365,-4.6381,-4.6466,-4.6493,-4.6205,-4.6205,-4.6205,0,0,-4.5426,-4.5469,-4.5525,-4.5636,-4.5678,-4.5769,-4.5688,-4.5788,-4.5855,-4.5806,-4.5933,-4.596,-4.6021,-4.6168,-4.6235,-4.6196,-4.6463,-4.6381,-4.6394,-4.6401,-4.6482,-4.6509,-4.6534,-4.6214,-4.6212,-4.6211,0,0,-4.5609,-4.5651,-4.5766,-4.581,-4.5875,-4.5888,-4.5915,-4.5973,-4.5989,-4.6117,-4.6081,-4.616,-4.6304,-4.6349,-4.6391,-4.659,-4.6558,-4.6616,-4.6719,-4.6802,-4.6825,-4.6845,-4.6915,-4.6941,-4.6632,-4.6632,-4.6632,0,-4.5694,-4.5831,-4.5827,-4.5931,-4.598,-4.594,-4.6055,-4.6097,-4.6185,-4.6219,-4.6174,-4.6353,-4.6392,-4.6548,-4.6597,-4.6632,-4.6662,-4.6609,-4.6822,-4.6842,-4.6861,-4.6928,-4.6954,-4.6638,-4.6638,-4.6637,-4.6636,0,-4.5931,-4.6027,-4.6112,-4.6198,-4.6256,-4.6365,-4.6376,-4.6436,-4.6424,-4.6441,-4.657,-4.6615,-4.6702,-4.6738,-4.6728,-4.6893,-4.6867,-4.6823,-4.6742,-4.6895,-4.6958,-4.6983,-4.6648,-4.6645,-4.6643,-4.6642,0,0,-4.617,-4.6252,-4.6283,-4.6322,-4.6391,-4.6464,-4.657,-4.6655,-4.6706,-4.6767,-4.6855,-4.6977,-4.6936,-4.6984,-4.6978,-4.7051,-4.7205,-4.6997,-4.6999,-4.7034,-4.7388,-4.742,-4.745,-4.7184,-4.7189,-4.7193,-4.7382,0,-4.6357,-4.6545,-4.6544,-4.6716,-4.6803,-4.6766,-4.6858,-4.691,-4.6928,-4.7003,-4.7022,-4.7109,-4.7049,-4.7077,-4.7148,-4.7171,-4.7275,-4.7157,-4.7264,-4.7268,-4.725,-4.7483,-4.7518,-4.7695,-4.7407,-4.7411,-4.7414,0,-4.6602,-4.6672,-4.6853,-4.6908,-4.6945,-4.7028,-4.7105,-4.7179,-4.7236,-4.7243,-4.7296,-4.7279,-4.7385,-4.7301,-4.7446,-4.7366,-4.741,-4.7427,-4.7434,-4.7444,-4.735,-4.7498,-4.7751,-4.7777,-4.7452,-4.7449,-4.7447,0,-4.6756,-4.6896,-4.7022,-4.7056,-4.7124,-4.7183,-4.7213,-4.7265,-4.7316,-4.7384,-4.7416,-4.7495,-4.7538,-4.7599,-4.7602,-4.7541,-4.7748,-4.7665,-4.7756,-4.7756,-4.7802,-4.7799,-4.8064,-4.7831,-4.783,-4.783,-4.7829,0,-4.6966,-4.7078,-4.7092,-4.717,-4.7294,-4.7291,-4.7413,-4.7438,-4.7485,-4.7565,-4.7538,-4.7614,-4.7614,-4.7691,-4.7694,-4.7813,-4.7833,-4.7841,-4.784,-4.7844,-4.7842,-4.7872,-4.7859,-4.7837,-4.7835,-4.7834,-4.7833,0,-4.716,-4.7174,-4.7309,-4.7362,-4.7378,-4.7467,-4.7511,-4.7584,-4.7599,-4.7702,-4.7725,-4.7749,-4.7838,-4.7847,-4.7951,-4.7953,-4.8097,-4.8083,-4.8078,-4.8075,-4.8166,-4.8157,-4.8459,-4.8498,-4.824,-4.8242,-4.8244,0,-4.7292,-4.7378,-4.744,-4.7492,-4.7526,-4.7611,-4.7663,-4.7663,-4.7718,-4.7789,-4.7853,-4.794,-4.8009,-4.8153,-4.8178,-4.8257,-4.8245,-4.8345,-4.8256,-4.8256,-4.8245,-4.824,-4.8248,-4.8362,-4.8365,-4.8367,-4.8369,0,-4.7526,-4.7528,-4.7605,-4.7684,-4.7747,-4.7809,-4.7867,-4.7912,-4.7919,-4.7982,-4.8073,-4.8127,-4.8232,-4.8318,-4.8396,-4.8425,-4.8399,-4.8397,-4.8422,-4.8426,-4.8419,-4.8423,-4.8124,-4.839,-4.8388,-4.8387,-4.8385,-4.8385,-4.7692,-4.7766,-4.7821,-4.7907,-4.7951,-4.8006,-4.8077,-4.8101,-4.8177,-4.8264,-4.8259,-4.8359,-4.8412,-4.8513,-4.8549,-4.8626,-4.8593,-4.8629,-4.8639,-4.8648,-4.8656,-4.8407,-4.8641,-4.864,-4.8639,-4.8639,-4.8638,0,-4.7923,-4.7957,-4.8036,-4.8119,-4.8186,-4.8156,-4.8218,-4.8276,-4.8365,-4.8417,-4.8486,-4.859,-4.8673,-4.8705,-4.8785,-4.8841,-4.8831,-4.8862,-4.8858,-4.8865,-4.8682,-4.8652,-4.8869,-4.8869,-4.8869,-4.8869,-4.8869,-4.8869,-4.8052,-4.8175,-4.8184,-4.8327,-4.8359,-4.8459,-4.8497,-4.8547,-4.8588,-4.8706,-4.8775,-4.8796,-4.8839,-4.8922,-4.8997,-4.9003,-4.9034,-4.9071,-4.9073,-4.8901,-4.8878,-4.8856,-4.8827,-4.9078,-4.9078,-4.9249,-4.925,-4.9251]}]]